Location: Coed Ely
(51.5661°N, 3.4150°W)
Time: 03:13:38
(UTC+00:00)

Cosmos 1455 - Pass Details

Date: 28 January 2021
Orbit: 499 x 520 km, 82.5° (Epoch: 24 February)

Event Time Altitude Azimuth Distance (km) Brightness Sun altitude
Rises 18:15:34 0° 343° (NNW) 2,642 5.9 -12.3°
Reaches altitude 10° 18:17:48 10° 335° (NNW) 1,753 5.0 -12.6°
Maximum altitude 18:21:21 36° 268° (W) 829 3.9 -13.2°
Drops below altitude 10° 18:24:53 10° 200° (SSW) 1,748 5.3 -13.7°
Sets 18:27:07 0° 192° (SSW) 2,633 6.1 -14.1°
